CZ-2D DEB, 44610

Orbit data source: Space-Track

CZ-2D DEB, 44610 is space debris in SSO originally from a launch on Mon, 09 Oct 2017 UTC launched from the Jiuquan Satellite Launch Center, China (JSC). Debris objects in space refer to the collection of defunct objects orbiting the Earth. Examples of debris include non-operational satellites, rocket bodies, and fragments generated from explosions, collisions, or faulty payload assembly.

Loading next visibility...
Identifier
44610, 2017-060C
Orbit
SSO
Country
Flag of CNCN / PRC
Related business
Manufacturer
Unknown
Mission
Spacecraft
Bus & Motor
Unknown
Mass
Unknown
Launch date (UTC)
2017-10-09 (8 years ago)
Launch vehicle
Unknown
Launch site
Jiuquan Satellite Launch Center, China (JSC)
Object type
Payload
Rocket body
Debris
Shape & HBR
Unknown shape, 0.1 m
Radar Cross Section
Small (<0.1 m²)

Expand to show TLE details & history
Last TLE update: 6 hours ago

TLE from 6 hours ago
0 CZ-2D DEB
1 44610U 17060C   26095.53216414  .00008496  00000-0  55159-3 0  9992
2 44610  98.2428 296.8776 0016857 343.7069  16.3613 15.08218076458290
Epoch: 2026-04-05T12:46Z
TLE epoch observation values (Epoch: 2026-04-05T12:46:18.981Z)
Latitude
-0.00006°
Longitude
-88.53772°
Altitude
533.501 km
Speed
7.602 km/s
True Right ascension
19h 47m 30s
True Declination
0° 00' 00"
Sunlit
Object was in daylight at epoch
Visualization orbit readout
Latitude
Unknown
Longitude
Unknown
Altitude
Unknown
Speed
Unknown
Apparent Right ascension
Unknown
Apparent Declination
Unknown
Sunlit
N/A
Visualization observer readout
Local Sidereal Time
01:09:12
Azimuth
Unknown
Elevation
Unknown
Doppler factor
Unknown
Orbital elements
Apogee altitude
550.324 km
Perigee altitude
527.004 km
Semi-major axis
6,916.801 km
Eccentricity
0.00169
Inclination
98.2428°
RAAN
296.8776°
Arg. of periapsis
343.7069°
True anomaly
16.41582°
Mean anomaly
16.3613°
Eccentric anomaly
16.38855°
Mean motion
3.77299 °/min
Orbital period
95.42 mins
BSTAR
0.00055159
Loading maneuver chart data...
Computing Atmospheric mass density...
Loading historical data...
Loading historical data...
Loading historical data...
Loading historical data...
Loading historical data...
Loading historical data...
Loading historical data...
Other satellites on launch #60 in the year 2017 (2017-10-09 UTC)

Documentation

Showing up to 5 results
|